St Augustine, FL 40NM ENE of St Augustine, FL (41012)

Conditions for Saturday

Daily
Weekly
Monthly
Marine Data Graph
Ad Blocker Enabled

Marine & Boating Location Search

Enter a coastal zip code for marine weather.

General Information

Location: 30.042 North -80.534 West
Buoy Type: 3-meter discus buoy
Buoy Hull: 3DV13
Payload: AMPS payload
Owned by: NDBC
Windspeed: Measured by obtained from anemometer
Sea Surface: Measured by Intake
Note: See the notice on loss of funding from the Coastal Storms Program for this station:
http://www.nws.noaa.gov/om/notification/scn14-06buoy_staugustine_fl.htm
Station 41012 has been disestablished on 02/19/2014.


Weather and Wave Data

Time Temp Humidity Wind Dominant Wave Wind Wave Wave Swell Pressure
  Air
(°F)
Water
(°F)
  Dir Speed
(kts)
Speed
(mph)
Period
(sec)
Height
(ft)
Range
(ft)
Period
(sec)
Height
(ft)
Range
(ft)
Period
(sec)
Height
(ft)
Range
(ft)
Atmo.
(in)
Tend.
(in)
20:50 81 82 68 SSE 11.7 13.4 10 2.62 exactly 2.6 - - - 10 1.64 0.82 - 2.46 29.97 +0.02
21:50 81 82 71 SSE 11.7 13.4 10 2.62 exactly 2.6 - - - 10 3.28 2.46 - 4.10 29.98 +0.02
22:50 81 82 72 SSE 11.7 13.4 10 2.95 exactly 3.0 3 1.64 0.82 - 2.46 10 3.28 2.46 - 4.10 29.99 +0.02
23:50 81 82 72 SSE 13.6 15.7 10 3.28 exactly 3.3 3 1.64 0.82 - 2.46 10 3.28 2.46 - 4.10 29.98 +0.01
00:50 81 82 67 South 13.6 15.7 8 3.28 exactly 3.3 3 1.64 0.82 - 2.46 8 3.28 2.46 - 4.10 29.96 -0.01
01:50 81 81 69 South 13.6 15.7 9 3.28 exactly 3.3 3 1.64 0.82 - 2.46 9 3.28 2.46 - 4.10 29.96 -0.03
02:50 81 81 67 South 13.6 15.7 8 3.61 exactly 3.6 4 1.64 0.82 - 2.46 8 3.28 2.46 - 4.10 29.95 -0.03
03:50 80 81 71 South 13.6 15.7 10 3.61 exactly 3.6 4 1.64 0.82 - 2.46 10 3.28 2.46 - 4.10 29.94 -0.02
04:50 80 81 74 SSW 13.6 15.7 10 3.61 exactly 3.6 4 1.64 0.82 - 2.46 10 3.28 2.46 - 4.10 29.94 -0.02
05:50 80 82 71 SSW 13.6 15.7 10 3.94 exactly 3.9 4 1.64 0.82 - 2.46 10 3.28 2.46 - 4.10 29.94 -
06:50 80 82 75 SSW 13.6 15.7 9 3.61 exactly 3.6 4 1.64 0.82 - 2.46 9 3.28 2.46 - 4.10 29.94 -
07:50 79 82 79 SW 13.6 15.7 10 3.61 exactly 3.6 4 1.64 0.82 - 2.46 10 3.28 2.46 - 4.10 29.95 +0.01
08:50 79 82 78 SSW 11.7 13.4 9 3.28 exactly 3.3 4 1.64 0.82 - 2.46 9 3.28 2.46 - 4.10 29.96 +0.02
09:50 79 82 76 SSW 11.7 13.4 9 3.28 exactly 3.3 4 1.64 0.82 - 2.46 9 3.28 2.46 - 4.10 29.98 +0.03
10:50 79 82 75 SW 11.7 13.4 10 2.95 exactly 3.0 3 1.64 0.82 - 2.46 10 3.28 2.46 - 4.10 29.98 +0.03
11:50 79 82 75 SSW 13.6 15.7 9 2.95 exactly 3.0 4 1.64 0.82 - 2.46 9 3.28 2.46 - 4.10 29.97 -
12:50 80 82 74 SSW 11.7 13.4 9 2.95 exactly 3.0 4 1.64 0.82 - 2.46 9 1.64 0.82 - 2.46 29.95 -0.02
13:50 80 82 76 SSW 11.7 13.4 10 2.95 exactly 3.0 4 1.64 0.82 - 2.46 10 3.28 2.46 - 4.10 29.93 -0.05
14:50 80 82 76 SSW 11.7 13.4 10 2.95 exactly 3.0 3 1.64 0.82 - 2.46 10 1.64 0.82 - 2.46 29.91 -0.05
15:50 80 82 74 South 9.7 11.2 10 2.62 exactly 2.6 4 1.64 0.82 - 2.46 10 1.64 0.82 - 2.46 29.91 -0.04
16:50 80 82 75 SSE 9.7 11.2 10 2.62 exactly 2.6 4 1.64 0.82 - 2.46 10 1.64 0.82 - 2.46 29.90 -0.04
17:50 81 82 72 SSE 9.7 11.2 9 2.30 exactly 2.3 4 1.64 0.82 - 2.46 9 1.64 0.82 - 2.46 29.90 -0.01
18:50 81 82 74 South 11.7 13.4 9 2.30 exactly 2.3 3 1.64 0.82 - 2.46 9 1.64 0.82 - 2.46 29.90 -0.01
19:50 81 82 76 South 15.6 17.9 10 2.30 exactly 2.3 3 1.64 0.82 - 2.46 10 1.64 0.82 - 2.46 29.89 -
20:50 78 82 81 SSW 13.6 15.7 9 2.30 exactly 2.3 3 1.64 0.82 - 2.46 9 1.64 0.82 - 2.46 29.90 -
21:50 79 82 78 SSW 11.7 13.4 9 2.62 exactly 2.6 3 1.64 0.82 - 2.46 9 1.64 0.82 - 2.46 29.92 +0.02
22:50 80 82 82 South 11.7 13.4 9 2.62 exactly 2.6 3 1.64 0.82 - 2.46 9 1.64 0.82 - 2.46 29.92 +0.03
23:50 80 82 84 South 13.6 15.7 10 2.62 exactly 2.6 4 1.64 0.82 - 2.46 10 1.64 0.82 - 2.46 29.91 -
00:50 80 82 84 South 15.6 17.9 8 2.62 exactly 2.6 4 1.64 0.82 - 2.46 8 1.64 0.82 - 2.46 29.90 -0.02
01:50 80 81 84 SSW 13.6 15.7 9 2.95 exactly 3.0 4 1.64 0.82 - 2.46 9 1.64 0.82 - 2.46 29.90 -0.02
02:50 80 81 84 SSW 15.6 17.9 4 2.95 exactly 3.0 4 3.28 2.46 - 4.10 9 1.64 0.82 - 2.46 29.89 -0.01
03:50 80 81 85 SW 15.6 17.9 - - - - - - 29.88 -0.02

Detailed Wave Spectra

Time Water Depth Wave Height Spectral Peak Period Average Wave Period Sampling Interval Wave Record
20:00 125 ft 2.36 ft 10.0 sec 7.6 sec 0.6 sec 2400 sec
21:00 125 ft 2.49 ft 10.0 sec 7.3 sec 0.6 sec 2400 sec
22:00 125 ft 2.69 ft 10.0 sec 6.3 sec 0.6 sec 2400 sec
23:00 125 ft 2.99 ft 10.0 sec 5.6 sec 0.6 sec 2400 sec
00:00 125 ft 3.18 ft 10.0 sec 5.4 sec 0.6 sec 2400 sec
01:00 125 ft 3.15 ft 8.3 sec 5.2 sec 0.6 sec 2400 sec
02:00 125 ft 3.41 ft 9.1 sec 5.1 sec 0.6 sec 2400 sec
03:00 125 ft 3.67 ft 8.3 sec 5.1 sec 0.6 sec 2400 sec
04:00 125 ft 3.74 ft 10.0 sec 5.3 sec 0.6 sec 2400 sec
05:00 125 ft 3.61 ft 10.0 sec 4.6 sec 0.6 sec 2400 sec
06:00 125 ft 3.97 ft 10.0 sec 5.0 sec 0.6 sec 2400 sec
07:00 125 ft 3.58 ft 9.1 sec 4.8 sec 0.6 sec 2400 sec
08:00 125 ft 3.67 ft 10.0 sec 4.8 sec 0.6 sec 2400 sec
09:00 125 ft 3.41 ft 9.1 sec 4.9 sec 0.6 sec 2400 sec
10:00 125 ft 3.25 ft 9.1 sec 4.9 sec 0.6 sec 2400 sec
11:00 125 ft 3.05 ft 10.0 sec 5.0 sec 0.6 sec 2400 sec
12:00 125 ft 3.08 ft 9.1 sec 5.0 sec 0.6 sec 2400 sec
13:00 125 ft 2.82 ft 9.1 sec 4.6 sec 0.6 sec 2400 sec
14:00 125 ft 3.05 ft 10.0 sec 5.1 sec 0.6 sec 2400 sec
15:00 125 ft 2.95 ft 10.0 sec 4.9 sec 0.6 sec 2400 sec
16:00 125 ft 2.66 ft 10.0 sec 4.6 sec 0.6 sec 2400 sec
17:00 125 ft 2.56 ft 10.0 sec 4.7 sec 0.6 sec 2400 sec
18:00 125 ft 2.46 ft 9.1 sec 4.9 sec 0.6 sec 2400 sec
19:00 125 ft 2.30 ft 9.1 sec 4.9 sec 0.6 sec 2400 sec
20:00 125 ft 2.40 ft 10.0 sec 4.2 sec 0.6 sec 2400 sec
21:00 125 ft 2.43 ft 9.1 sec 4.0 sec 0.6 sec 2400 sec
22:00 125 ft 2.62 ft 9.1 sec 4.3 sec 0.6 sec 2400 sec
23:00 125 ft 2.56 ft 9.1 sec 4.4 sec 0.6 sec 2400 sec
00:00 125 ft 2.59 ft 10.0 sec 4.4 sec 0.6 sec 2400 sec
01:00 125 ft 2.49 ft 8.3 sec 4.1 sec 0.6 sec 2400 sec
02:00 125 ft 2.82 ft 9.1 sec 4.3 sec 0.6 sec 2400 sec
03:00 125 ft 3.02 ft 4.2 sec 4.1 sec 0.6 sec 2400 sec